Location: El Guaramo
(10.5194°N, 67.1667°W)
Time: 22:12:50
(UTC+00:00)

STARLINK-31357 - Pass Details

Date: 18 April 2024
Orbit: 443 x 445 km, 43.0° (Epoch: 24 May)

Event Time Altitude Azimuth Distance (km) Brightness Sun altitude
Rises 22:49:15 0° 324° (NW) 2,428 7.8 -3.1°
Reaches altitude 10° 22:51:28 10° 331° (NNW) 1,560 6.6 -3.6°
Maximum altitude 22:54:50 41° 43° (NE) 658 3.8 -4.5°
Drops below altitude 10° 22:58:12 10° 115° (ESE) 1,564 5.3 -5.3°
Enters shadow 22:59:04 - 119° (ESE) 1,899 5.7 -5.5°
